Location: Killam
(52.7910°N, 111.8608°W)
Time: 09:36:30
(UTC+00:00)

FENGYUN 1C DEB - Pass Details

Date: 31 May 2024
Orbit: 795 x 992 km, 98.4° (Epoch: 16 June)

Event Time Altitude Azimuth Distance (km) Brightness Sun altitude
Rises 07:37:24 0° 8° (N) 3,325 ? -15.2°
Reaches altitude 10° 07:40:09 10° 354° (N) 2,405 ? -15.1°
Maximum altitude 07:44:10 23° 304° (NW) 1,714 ? -15.1°
Drops below altitude 10° 07:48:16 10° 255° (WSW) 2,463 ? -15.0°
Enters shadow 07:50:37 - 243° (WSW) 3,246 ? -15.0°
